Regional Weather Roundup
Issued by NWS

Home | Current Version | Previous Version | Graphics & Text | Print | Product List | Glossary On
Versions: 1 2 3 4 5 6 7 8 9 10 11 12 13 14 15 16 17 18 19 20 21 22 23 24 25 26 27 28 29 30 31 32 33 34 35 36 37 38 39 40 41 42 43 44 45 46 47 48 49 50
000
ASUS43 KTOP 300608
RWRKS

WEATHER ROUNDUP FOR KANSAS
NATIONAL WEATHER SERVICE GOODLAND KS
100 AM CDT FRI SEP 30 2016

NOTE:  "FAIR" INDICATES FEW OR NO CLOUDS BELOW 12,000 FEET WITH NO
SIGNIFICANT WEATHER AND/OR OBSTRUCTIONS TO VISIBILITY.

KSZ001>006-013>018-027>032-041>047-300700-
NORTHWEST KANSAS

CITY           SKY/WX    TMP DP  RH WIND       PRES   REMARKS
GOODLAND       CLEAR     50  39  66 S14       30.28F
6HR MIN TEMP:  50; 6HR MAX TEMP:  70;

HAYS           CLEAR     48  36  61 SE3       30.32F
HILL CITY      CLEAR     47  43  86 E5        30.32F
6HR MIN TEMP:  47; 6HR MAX TEMP:  65;

RUSSELL        CLEAR     50  45  83 SE7       30.31F
6HR MIN TEMP:  50; 6HR MAX TEMP:  65;

$$

KSZ061>065-074>080-084>089-300700-
SOUTHWEST KANSAS

CITY           SKY/WX    TMP DP  RH WIND       PRES   REMARKS
DODGE CITY     CLOUDY    50  44  80 SE7       30.31F
6HR MIN TEMP:  50; 6HR MAX TEMP:  67;

ELKHART          N/A     55  40  57 S10         N/A
GARDEN CITY    CLOUDY    52  42  69 SE9       30.29F
6HR MIN TEMP:  52; 6HR MAX TEMP:  71;

GREAT BEND     CLEAR     50  39  66 CALM      30.32F
LIBERAL        CLEAR     54  37  54 SE9       30.31S
PRATT          CLEAR     52  45  76 CALM      30.32F
6HR MIN TEMP:  52; 6HR MAX TEMP:  64;

$$

KSZ066>073-081>083-090>101-300700-
SOUTHEAST KANSAS

CITY           SKY/WX    TMP DP  RH WIND       PRES   REMARKS
CHANUTE        CLEAR     53  50  89 NW3       30.27F
6HR MIN TEMP:  52; 6HR MAX TEMP:  66;

COFFEYVILLE    CLEAR     53  49  86 NW3       30.27F
6HR MIN TEMP:  51; 6HR MAX TEMP:  66;

HUTCHINSON     CLEAR     50  47  89 NE3       30.32S
6HR MIN TEMP:  50; 6HR MAX TEMP:  64;

MEDICINE LODGE   N/A     50  47  89 N3        30.31F
NEWTON         CLEAR     54  49  83 NE5       30.31F
PARSONS        CLEAR     47  45  93 CALM      30.28F
6HR MIN TEMP:  47; 6HR MAX TEMP:  65;

WICHITA INTL   PTCLDY    56  50  80 NE6       30.30F
6HR MIN TEMP:  55; 6HR MAX TEMP:  67;

WICHITA JABRA  CLEAR     53  50  89 N6        30.30F
6HR MIN TEMP:  51; 6HR MAX TEMP:  64;

WICHITA MCCONL CLEAR     56  49  77 NE3       30.30F
WINFIELD       CLEAR     53  50  89 CALM      30.30F
6HR MIN TEMP:  51; 6HR MAX TEMP:  65;

$$

KSZ007>012-019>026-033>040-048>060-102>105-300700-
NORTHEAST KANSAS

CITY           SKY/WX    TMP DP  RH WIND       PRES   REMARKS
CONCORDIA      CLEAR     50  47  89 CALM      30.32F
6HR MIN TEMP:  50; 6HR MAX TEMP:  65;

EMPORIA        CLEAR     51  49  92 W6        30.29F
6HR MIN TEMP:  51; 6HR MAX TEMP:  63;

LAWRENCE       CLEAR     50  49  96 W6        30.28F
6HR MIN TEMP:  49; 6HR MAX TEMP:  65;

MANHATTAN      CLEAR     48  46  93 CALM      30.31S
6HR MIN TEMP:  47; 6HR MAX TEMP:  65;

MARYSVILLE     CLEAR     46  46 100 N3        30.31F
OLATHE IND     CLEAR     52  49  89 W6        30.28F
6HR MIN TEMP:  52; 6HR MAX TEMP:  64;

OLATHE EXE     CLEAR     56  49  77 N6        30.27F
6HR MIN TEMP:  55; 6HR MAX TEMP:  67;

SALINA         CLEAR     53  47  79 CALM      30.32F
6HR MIN TEMP:  52; 6HR MAX TEMP:  68;

TOPEKA BILLARD CLEAR     52  49  89 CALM      30.29F
6HR MIN TEMP:  50; 6HR MAX TEMP:  65;

TOPEKA FORBES  CLEAR     52  49  89 N3        30.29F
6HR MIN TEMP:  52; 6HR MAX TEMP:  66;

$$




USA.gov is the U.S. government's official web portal to all federal, state and local government web resources and services.